Tracking 30995 objects as of 5-Jul-2025
HD Live streaming from Space Station
objects crossing your sky now

DMSP 5D-2 F13 DEB

Track DMSP 5D-2 F13 DEB now!
10-day predictions


NORAD ID: 40516
Int'l Code: 1995-015DC
Perigee: 768.0 km
Apogee: 805.6 km
Inclination: 98.8 °
Period: 100.4 minutes
Semi major axis: 7157 km
RCS: Unknown
Launch date: March 24, 1995
Source: United States (US)
Launch site: AIR FORCE WESTERN TEST RANGE (AFWTR)

Note: This is SATELLITE DEBRIS
Your satellite tracking list
STARLINK-2606
Track 1 satellite(s)




NASA's NSSDC Master Catalog

Two Line Element Set (TLE):
1 40516U 95015DC  25185.53799319  .00003794  00000-0  13799-2 0  9997
2 40516  98.8083 210.5916 0026256  73.5075 286.8990 14.33619984535447
Source of the keplerian elements: AFSPC